CDT,Max TemperatureF,Mean TemperatureF,Min TemperatureF,Max Dew PointF,MeanDew PointF,Min DewpointF,Max Humidity, Mean Humidity, Min Humidity, Max Sea Level PressureIn, Mean Sea Level PressureIn, Min Sea Level PressureIn, Max VisibilityMiles, Mean VisibilityMiles, Min VisibilityMiles, Max Wind SpeedMPH, Mean Wind SpeedMPH, Max Gust SpeedMPH,PrecipitationIn, CloudCover, Events, WindDirDegrees
2012-10-1,68,50,32,48,40,28,83,55,26,30.21,30.11,29.98,10,10,10,25,12,33,T,1,,360
2012-10-2,81,55,28,38,32,25,92,56,19,30.12,29.93,29.78,10,10,5,17,8,26,0.00,0,,163
2012-10-3,90,67,44,41,37,32,66,40,14,30.17,29.79,29.63,10,10,10,36,13,47,0.00,0,,233
2012-10-4,54,41,27,32,28,24,78,57,35,30.40,30.31,30.17,10,10,10,29,12,38,0.00,0,,354
2012-10-5,40,34,28,36,32,23,92,78,64,30.45,30.38,30.32,10,9,2,12,4,14,0.05,8,Rain-Snow,333
2012-10-6,37,32,26,34,30,24,100,86,72,30.48,30.40,30.34,10,6,0,18,4,28,0.12,7,Fog-Snow,314
2012-10-7,55,37,19,32,25,17,96,64,32,30.39,30.21,30.04,10,10,8,18,6,26,0.00,0,,256
2012-10-8,72,49,25,33,27,22,85,52,19,30.03,29.91,29.80,10,10,10,14,6,20,0.00,0,,294
2012-10-9,56,41,25,38,29,23,82,56,30,30.25,30.04,29.85,10,10,2,23,9,30,0.00,2,,350
2012-10-10,66,43,20,36,29,18,100,66,32,30.27,30.14,29.96,10,10,10,22,6,32,0.00,0,,196
2012-10-11,56,44,31,33,30,23,79,59,38,30.36,30.13,29.93,10,10,2,24,10,30,0.00,0,,47
2012-10-12,48,36,24,37,29,22,88,67,46,30.37,30.17,29.89,10,10,10,20,7,25,0.00,3,,149
2012-10-13,79,57,35,44,39,33,96,61,25,29.88,29.75,29.59,10,8,1,24,10,32,0.00,1,,288
2012-10-14,75,56,37,40,34,31,76,50,23,30.07,30.00,29.86,10,10,10,28,12,36,0.00,0,,304
2012-10-15,82,56,30,39,32,28,89,53,16,30.05,29.88,29.72,10,10,9,18,4,24,0.00,0,,229
2012-10-16,77,59,40,45,36,30,70,47,23,29.78,29.60,29.39,10,10,10,24,8,29,T,1,Rain,266
2012-10-17,67,52,36,44,27,12,68,43,18,29.84,29.67,29.43,10,10,10,39,20,56,0.00,3,,307
2012-10-18,59,49,39,22,19,14,43,34,24,29.97,29.86,29.81,10,10,10,49,27,62,0.00,0,,309
2012-10-19,68,45,22,28,15,8,50,31,12,30.00,29.90,29.78,10,10,10,21,10,25,0.00,0,,309
2012-10-20,83,54,24,37,25,15,63,39,15,29.77,29.68,29.58,10,10,10,18,4,23,0.00,0,,203
2012-10-21,71,52,32,39,34,25,75,52,29,29.86,29.73,29.61,10,10,5,23,9,30,0.00,0,,45
2012-10-22,56,49,42,45,43,39,89,75,61,29.95,29.87,29.81,10,10,9,14,7,17,0.00,7,,21
2012-10-23,72,59,46,49,47,42,100,72,44,29.81,29.72,29.63,10,6,1,22,6,29,0.00,6,,122
2012-10-24,58,46,33,41,36,30,92,68,43,29.97,29.85,29.79,10,9,2,26,17,33,0.08,7,Rain-Snow,24
2012-10-25,41,33,24,31,28,21,92,76,59,30.44,30.14,29.93,10,6,1,21,12,29,0.03,6,Snow,340
2012-10-26,36,30,24,27,24,21,85,74,63,30.61,30.49,30.38,10,10,10,15,6,21,0.00,7,,279
2012-10-27,49,36,23,29,24,21,92,67,42,30.40,30.26,30.14,10,10,10,22,8,29,0.00,1,,179
2012-10-28,55,37,19,30,25,18,92,65,38,30.25,30.15,30.06,10,10,10,18,6,23,0.00,5,,139
2012-10-29,73,49,25,40,33,22,92,60,27,30.12,30.05,29.98,10,10,10,15,4,18,0.00,0,,220
2012-10-30,74,52,30,42,35,28,92,60,27,30.05,30.01,29.95,10,10,10,16,6,22,0.00,0,,3
2012-10-31,75,51,27,42,33,28,92,56,20,30.09,30.04,29.99,10,10,7,12,4,16,0.00,0,,301